{"data":{"norad_id":51793,"intl_designator":"2022-017AB","name":"STARLINK-3633","alt_names":[],"object_type":"PAYLOAD","status":"ACTIVE","operator":null,"country":"US","launch_date":"2022-02-25","launch_site_code":"AFWTR","launch_vehicle":null,"mission":null,"orbit_class":"UNKNOWN","rcs_meters":null,"size_class":null,"mass_kg":null,"dimensions":null,"purposes":["comms"],"wikipedia_slug":null,"has_3d_model":false,"image_url":null,"decayed_at":null,"tle_current":{"epoch":"2026-06-18T15:51:08.596224Z","epoch_age_seconds":8159429,"freshness":"OLD","line1":"1 51793U 22017AB  26169.66051616  .01843878  11997-4  53321-3 0  9999","line2":"2 51793  53.2023 205.1680 0008435 342.5180  17.5572 16.26614750239927","mean_motion":16.2661475,"eccentricity":0.0008435,"inclination_deg":53.2023,"raan_deg":205.168,"arg_perigee_deg":342.518,"mean_anomaly_deg":17.5572,"bstar":0.00053321,"rev_number":23992,"period_min":88.52741560348,"perigee_km":196.10301235072,"apogee_km":207.20311819084,"semimajor_km":6579.7900652708,"source":"CELESTRAK","updated_at":"2026-06-21T09:00:45.958042Z"}}}